Regional Weather Roundup
Issued by NWS

Home | Current Version | Previous Version | Text Only | Print | Product List | Glossary Off
Versions: 1 2 3 4 5 6 7 8 9 10 11 12 13 14 15 16 17 18 19 20 21 22 23 24 25 26 27 28 29 30 31 32 33 34 35 36 37 38 39 40 41 42 43 44 45 46 47 48 49 50

501
ASUS43 KMPX 201910
RWRMN
WEATHER ROUNDUP FOR MINNESOTA
NATIONAL WEATHER SERVICE TWIN CITIES/CHANHASSEN MN
200 PM CDT THU JUL 20 2017


NOTE: "FAIR" INDICATES FEW OR NO CLOUDS BELOW 12,000 FEET WITH NO
SIGNIFICANT WEATHER AND/OR OBSTRUCTIONS TO VISIBILITY. N/A MEANS
CURRENT SKY AND/OR WEATHER CONDITIONS ARE NOT AVAILABLE.

MNZ060>063-068>070-202000-
   Twin Cities Metro

CITY           SKY/WX    TMP DP  RH WIND       PRES   REMARKS
TWIN CITIES    PTSUNNY   83  69  62 SE6       30.02S
ST PAUL        PTSUNNY   83  70  64 SE6       30.01F
CRYSTAL        PTSUNNY   83  64  52 VRB3      30.01S
BLAINE         PTSUNNY   82  66  57 CALM      30.02S
LAKEVILLE      PTSUNNY   81  72  74 CALM      30.03S
EDEN PRAIRIE   MOSUNNY   83  69  62 CALM      30.01F
SOUTH ST PAUL  MOSUNNY   82  72  72 CALM      30.01S
LAKE ELMO      FAIR      81  68  65 SW6       30.03F
$$
MNZ001>005-007-008-013>017-022>024-027-028-202000-
   Northwest Minnesota

CITY           SKY/WX    TMP DP  RH WIND       PRES   REMARKS
BEMIDJI        CLOUDY    80  56  44 NE5       30.02F
HALLOCK        PTSUNNY   73  57  56 CALM      29.99F
ROSEAU         SUNNY     73  57  56 CALM      30.01F
WARROAD        SUNNY     73  59  60 E8        30.02F
THIEF RVR FALL PTSUNNY   76  58  53 SE3       30.03S
CROOKSTON      SUNNY     81  57  44 CALM      30.01S
FOSSTON        SUNNY     81  61  50 CALM      30.02F
DETROIT LAKES  SUNNY     81  59  47 CALM      30.04S
MOORHEAD       SUNNY     82  59  44 SW5       30.01S
PARK RAPIDS    SUNNY     87  54  32 SW5       30.01F
MAHNOMEN       FAIR      81  57  43 N3        30.02S
$$
MNZ006-009>011-018-025>026-202000-
   North Central Minnesota

CITY           SKY/WX    TMP DP  RH WIND       PRES   REMARKS
BAUDETTE       SUNNY     75  50  41 NW8       30.02F
FLAG ISLAND    MOSUNNY   73  48  40 S3        30.01S
INTL FALLS     SUNNY     76  54  46 NW9       30.00F
WASKISH        SUNNY     79  61  53 SW6       30.02F
BIG FORK       SUNNY     79  61  53 CALM      30.02S
LONGVILLE      SUNNY     81  55  41 N8        30.02F
GRAND RAPIDS   SUNNY     80  57  45 NW8       30.03F
CRANE LAKE     SUNNY     73  55  53 NW5       30.01S
ORR            SUNNY     79  54  41 NW7       29.99S
COOK           SUNNY     77  54  44 NW7       30.01S
WALKER         FAIR      82  54  37 N3        30.01F
$$
MNZ012-019>021-037-202000-
   Northeast Minnesota

CITY           SKY/WX    TMP DP  RH WIND       PRES   REMARKS
DULUTH         MOSUNNY   83  63  50 NW13G18   29.99F
ELY            SUNNY     79  52  38 NW3       29.99S
HIBBING        SUNNY     79  52  38 NW12      30.01S
EVELETH        SUNNY     81  38  21 W7        30.02S
DULUTH HARBOR  SUNNY     84  64  51 NW8       29.96F
TWO HARBORS    SUNNY     84  64  51 NW7       29.96S
SILVER BAY     SUNNY     84  54  34 W8        29.95F
GRAND MARAIS     N/A     63  57  81 SW13      29.93S
G MARAIS ARPRT SUNNY     75  54  46 W8        29.99S
$$
MNZ029>031-032-039>041-046>048-054>057-064-202000-
   West Central Minnesota

CITY           SKY/WX    TMP DP  RH WIND       PRES   REMARKS
FERGUS FALLS   SUNNY     81  68  65 S7        30.02S
WHEATON        SUNNY     84  68  58 CALM      30.03F
MORRIS         SUNNY     86  66  51 SW6       30.03S
ALEXANDRIA     SUNNY     81  64  56 VRB3      30.06R
ELBOW LAKE     FAIR      81  72  74 S6        30.04S HAZE
WADENA         SUNNY     82  63  51 S8        30.03R
GLENWOOD       SUNNY     84  66  54 SW6       30.06R
APPLETON       SUNNY     84  64  51 CALM      30.03S
BENSON         SUNNY     84  64  51 SW7       30.05F
ORTONVILLE     SUNNY     84  66  54 SE6       30.04S
MADISON        MOSUNNY   84  68  58 S9        30.04S
WILLMAR        FAIR      81  70  69 S3        30.06S
$$
MNZ033>034-036-042>043-049>051-058-059-202000-
   Central Minnesota

CITY           SKY/WX    TMP DP  RH WIND       PRES   REMARKS
ST CLOUD       SUNNY     84  65  52 W5        30.02S
SAUK CENTRE    FAIR      83  64  52 SW5       30.05R
PAYNESVILLE    MOSUNNY   84  68  59 S8        30.05R
AITKIN         SUNNY     81  63  54 NW5       30.00F
PINE RIVER     SUNNY     82  57  42 W3        30.05S
BRAINERD       CLOUDY    82  62  50 CALM      30.02S
STAPLES        MOSUNNY   82  61  47 SW5       30.03R
LONG PRAIRIE   FAIR      81  64  57 E3        30.05S
LITTLE FALLS   SUNNY     81  63  54 S5        30.04S
LITCHFIELD     MOSUNNY   84  70  61 SW3       30.04S
BUFFALO        PTSUNNY   81  67  62 SE5       30.04S
MAPLE LAKE     MOSUNNY   83  72  68 SW6       30.05R
HUTCHINSON     PTSUNNY   82  71  71 CALM      30.05R
$$
MNZ037-044-045-052-053-202000-
   East Central Minnesota

CITY           SKY/WX    TMP DP  RH WIND       PRES   REMARKS
PRINCETON      SUNNY     86  66  51 S3        30.02S
MORA           SUNNY     79  63  57 W5        30.03F
CAMBRIDGE      CLOUDY    84  66  54 W3        30.00F
RUSH CITY      CLOUDY    82  64  53 SW6       30.02S
MOOSE LAKE     CLOUDY    81  61  50 N3        29.99F
HINCKLEY       FAIR      82  68  61 CALM      30.01S
CLOQUET        SUNNY     82  59  44 NW5       30.00F
MCGREGOR       SUNNY     81  61  50 CALM      30.02S
$$
MNZ071>073-080-081-089-090-097-098-202000-
   Southwest Minnesota

CITY           SKY/WX    TMP DP  RH WIND       PRES   REMARKS
MONTEVIDEO     MOSUNNY   86  72  62 SW5       30.05R HX  92
GRANITE FALLS  MOSUNNY   83  71  66 SE5       30.06S
CANBY          SUNNY     85  65  50 CALM      30.05F
MARSHALL       MOSUNNY   82  68  62 S8        30.05S
REDWOOD FALLS  PTSUNNY   81  68  64 S3        30.04R
OLIVIA         MOSUNNY   81  68  65 S5        30.04S
PIPESTONE      PTSUNNY   84  66  54 E3        30.07F
WINDOM         CLOUDY    81  70  69 NE3       30.06R
WORTHINGTON    CLOUDY    84  68  58 VRB7      30.06S
JACKSON        MOSUNNY   82  68  61 CALM      30.05R
TRACY          PTSUNNY   82  71  69 E5        30.06R
SLAYTON        HVY RAIN  80  68  67 E3        30.08R
$$
MNZ065>067-074>077-082>085-091>093-202000-
   South Central Minnesota

CITY           SKY/WX    TMP DP  RH WIND       PRES   REMARKS
MANKATO        CLOUDY    81  70  69 E5        30.03S
NEW ULM        CLOUDY    81  70  69 SE3       30.03S
ST JAMES       CLOUDY    81  72  74 CALM      30.04R
FAIRMONT       MOSUNNY   82  74  76 CALM      30.03R
GLENCOE        MOSUNNY   82  73  72 S3        30.03S
FARIBAULT      CLOUDY    82  72  69 N5        30.03F
OWATONNA       PTSUNNY   84  72  65 NE3       30.03S
WASECA         PTSUNNY   79  70  73 E3        30.04S
ALBERT LEA     CLOUDY    82  72  69 E8        30.01F
$$
MNZ078>079-086>088-094>096-202000-
   Southeast Minnesota

CITY           SKY/WX    TMP DP  RH WIND       PRES   REMARKS
ROCHESTER      SUNNY     84  74  71 NE5       30.03F HX  91
RED WING       MOSUNNY   82  63  51 CALM      30.01S
STANTON        PTSUNNY   82  70  67 CALM      30.01F
DODGE CENTER   MOSUNNY   82  72  69 CALM      30.04S
WINONA         CLOUDY    82  68  61 NE6       30.00F
AUSTIN         SUNNY     82  72  69 E7        30.02F
PRESTON        SUNNY     82  69  65 E3        30.04S
$$
ABBREVIATIONS USED IN REMARKS
   TC - TEMPERATURES IN CELSIUS
  WCI - WIND CHILL INDEX
   HX - HEAT INDEX
  VSB - VISIBILITY
$$




USA.gov is the U.S. government's official web portal to all federal, state and local government web resources and services.